Date String (YYYY-MM-DD hh:mm:ss) UTC,Instrument flags,absolute air pressure of the measurement (hPa),sample flow rate (lpm),inlet stack bypass flow (lpm),air temperature of the measurement (°C),ambient temperature measured by the external sensor (°C),aerosol sample conditioner tube jacket temperature (°C),OPC LED temperature (°C),internal box temperature (°C),relative humidity of the measurement (%),span deviation,mass concentration of particles derived from Lorenz-Mie calculation of OPC scattering (μg/m³),mass concentration of particles derived from Lorenz-Mie calculation of OPC scattering (μg/m³),mass concentration of particles derived from Lorenz-Mie calculation of OPC scattering (μg/m³)
DateTimeUTC,F1_M11,P_M11,Q1_M11,Q2_M11,T1_M11,T2_M11,T3_M11,T4_M11,T5_M11,U1_M11,ZSPAN_M11,X0_M11,X2_M11,X1_M11
2023-09-04 06:00:00,SystemResetWarning,0827.7,4.99,000.00,029.7,027.3,000.0,037.7,030.3,32.5,0000.0,0003.37,0002.19,0001.76
2023-09-04 06:01:00,SystemResetWarning,0827.7,4.99,000.00,029.6,026.0,000.0,037.6,029.9,32.5,0000.0,0003.25,0002.16,0001.75
2023-09-04 06:02:00,SystemResetWarning,0827.6,5.01,000.00,029.5,025.0,000.0,037.6,029.7,32.7,0000.0,0003.16,0002.15,0001.75
2023-09-04 06:03:00,SystemResetWarning,0827.5,5.01,000.00,029.4,024.7,000.0,037.5,029.5,32.9,0000.0,0003.38,0002.16,0001.75
2023-09-04 06:04:00,SystemResetWarning,0827.4,5.01,000.00,029.2,025.0,000.0,037.5,029.5,33.2,0000.0,0003.79,0002.15,0001.74
2023-09-04 06:05:00,SystemResetWarning,0827.7,4.99,000.00,029.2,025.3,000.0,037.5,029.6,33.3,0000.0,0003.81,0002.15,0001.73
2023-09-04 06:06:00,SystemResetWarning,0827.9,5.00,000.00,029.1,025.7,000.0,037.5,029.7,33.3,0000.0,0003.84,0002.16,0001.72
2023-09-04 06:07:00,SystemResetWarning,0827.6,5.02,000.00,029.1,026.0,000.0,037.5,029.8,33.3,0000.0,0003.87,0002.16,0001.71
2023-09-04 06:08:00,SystemResetWarning,0827.5,5.00,000.00,029.1,026.2,000.0,037.5,029.9,33.1,0000.0,0003.85,0002.17,0001.71
2023-09-04 06:09:00,SystemResetWarning,0827.5,5.00,000.00,029.1,026.5,000.0,037.5,029.9,33.1,0000.0,0003.78,0002.16,0001.69
2023-09-04 06:10:00,SystemResetWarning,0827.5,5.00,000.00,029.1,026.7,000.0,037.5,030.0,33.0,0000.0,0003.79,0002.13,0001.67
2023-09-04 06:11:00,SystemResetWarning,0827.5,5.00,000.00,029.1,026.8,000.0,037.5,030.0,33.0,0000.0,0003.74,0002.09,0001.65
2023-09-04 06:12:00,SystemResetWarning,0827.5,5.00,000.00,029.1,026.9,000.0,037.4,030.1,32.9,0000.0,0003.62,0002.08,0001.64
2023-09-04 06:13:00,SystemResetWarning,0827.5,5.00,000.00,029.1,027.0,000.0,037.4,030.1,32.8,0000.0,0003.61,0002.05,0001.62
2023-09-04 06:14:00,SystemResetWarning,0827.5,5.01,000.00,029.1,027.1,000.0,037.4,030.1,32.6,0000.0,0003.61,0002.03,0001.60
2023-09-04 06:15:00,SystemResetWarning,0827.6,5.00,000.00,029.1,027.2,000.0,037.4,030.2,32.3,0000.0,0003.09,0002.03,0001.60
2023-09-04 06:16:00,SystemResetWarning,0827.5,4.99,000.00,029.1,027.3,000.0,037.4,030.2,32.1,0000.0,0002.94,0002.01,0001.58
2023-09-04 06:17:00,SystemResetWarning,0827.6,4.99,000.00,029.1,027.3,000.0,037.4,030.2,32.0,0000.0,0002.90,0002.00,0001.59
2023-09-04 06:18:00,SystemResetWarning,0827.6,5.00,000.00,029.2,027.4,000.0,037.5,030.3,31.8,0000.0,0002.99,0001.99,0001.59
2023-09-04 06:19:00,SystemResetWarning,0827.5,4.99,000.00,029.2,027.0,000.0,037.4,030.2,31.7,0000.0,0003.04,0002.00,0001.59
2023-09-04 06:20:00,SystemResetWarning,0827.5,5.00,000.00,029.0,025.5,000.0,037.3,029.7,31.8,0000.0,0002.96,0001.95,0001.60
2023-09-04 06:21:00,SystemResetWarning,0827.8,5.01,000.00,028.9,024.7,000.0,037.2,029.5,32.0,0000.0,0003.07,0001.95,0001.60
2023-09-04 06:22:00,SystemResetWarning,0827.7,5.01,000.00,028.8,024.7,000.0,037.2,029.4,32.0,0000.0,0003.82,0002.00,0001.61
2023-09-04 06:23:00,SystemResetWarning,0827.4,5.00,000.00,028.7,025.0,000.0,037.2,029.5,31.9,0000.0,0004.04,0002.04,0001.62
2023-09-04 06:24:00,SystemResetWarning,0827.4,5.00,000.00,028.7,025.4,000.0,037.2,029.6,31.5,0000.0,0004.12,0002.06,0001.64
2023-09-04 06:25:00,SystemResetWarning,0827.4,5.00,000.00,028.6,025.7,000.0,037.2,029.7,31.2,0000.0,0004.18,0002.11,0001.66
2023-09-04 06:26:00,SystemResetWarning,0827.4,4.99,000.00,028.6,026.0,000.0,037.1,029.7,30.9,0000.0,0004.20,0002.13,0001.66
2023-09-04 06:27:00,SystemResetWarning,0827.4,5.00,000.00,028.6,026.3,000.0,037.1,029.8,31.0,0000.0,0004.15,0002.15,0001.68
2023-09-04 06:28:00,SystemResetWarning,0827.4,5.01,000.00,028.7,026.5,000.0,037.1,029.8,31.1,0000.0,0004.23,0002.19,0001.68
2023-09-04 06:29:00,SystemResetWarning,0827.4,5.00,000.00,028.7,026.7,000.0,037.1,029.9,30.5,0000.0,0004.22,0002.23,0001.69
2023-09-04 06:30:00,SystemResetWarning,0827.4,5.00,000.00,028.7,026.8,000.0,037.1,029.9,30.3,0000.0,0004.17,0002.22,0001.69
2023-09-04 06:31:00,SystemResetWarning,0827.4,5.00,000.00,028.7,026.9,000.0,037.1,030.0,30.0,0000.0,0004.26,0002.25,0001.69
2023-09-04 06:32:00,SystemResetWarning,0827.3,5.00,000.00,028.7,027.0,000.0,037.1,030.0,29.8,0000.0,0004.52,0002.34,0001.71
2023-09-04 06:33:00,SystemResetWarning,0827.3,5.00,000.00,028.7,027.1,000.0,037.1,030.0,29.6,0000.0,0003.75,0002.31,0001.72
2023-09-04 06:34:00,SystemResetWarning,0827.3,5.00,000.00,028.7,027.2,000.0,037.1,030.1,29.7,0000.0,0003.58,0002.30,0001.72
2023-09-04 06:35:00,SystemResetWarning,0827.2,5.00,000.00,028.8,027.3,000.0,037.1,030.1,29.7,0000.0,0003.58,0002.30,0001.71
2023-09-04 06:36:00,SystemResetWarning,0827.2,5.00,000.00,028.8,027.3,000.0,037.1,030.1,29.7,0000.0,0003.71,0002.30,0001.71
2023-09-04 06:37:00,SystemResetWarning,0827.2,5.00,000.00,028.8,027.4,000.0,037.1,030.1,29.6,0000.0,0003.80,0002.29,0001.72
2023-09-04 06:38:00,SystemResetWarning,0827.2,5.00,000.00,028.8,027.2,000.0,037.1,030.1,29.6,0000.0,0003.81,0002.29,0001.73
2023-09-04 06:39:00,SystemResetWarning,0827.1,4.99,000.00,028.7,025.7,000.0,037.0,029.7,29.7,0000.0,0003.70,0002.23,0001.72
2023-09-04 06:40:00,SystemResetWarning,0827.1,5.00,000.00,028.6,024.7,000.0,036.9,029.5,30.1,0000.0,0003.73,0002.22,0001.73
2023-09-04 06:41:00,SystemResetWarning,0827.1,5.00,000.00,028.5,024.6,000.0,036.9,029.3,30.5,0000.0,0003.66,0002.21,0001.75
2023-09-04 06:42:00,SystemResetWarning,0827.2,5.01,000.00,028.4,024.9,000.0,036.9,029.3,30.8,0000.0,0003.67,0002.22,0001.76
2023-09-04 06:43:00,SystemResetWarning,0827.1,5.00,000.00,028.4,025.2,000.0,036.9,029.4,30.9,0000.0,0003.37,0002.14,0001.75
2023-09-04 06:44:00,SystemResetWarning,0827.1,5.00,000.00,028.3,025.6,000.0,036.9,029.5,31.0,0000.0,0003.37,0002.16,0001.75
2023-09-04 06:45:00,SystemResetWarning,0827.1,5.00,000.00,028.3,025.9,000.0,036.9,029.6,31.1,0000.0,0003.37,0002.16,0001.74
2023-09-04 06:46:00,SystemResetWarning,0827.0,5.00,000.00,028.3,026.2,000.0,036.9,029.6,31.9,0000.0,0003.39,0002.21,0001.74
2023-09-04 06:47:00,SystemResetWarning,0827.1,5.00,000.00,028.4,026.4,000.0,036.9,029.7,31.6,0000.0,0003.35,0002.24,0001.74
2023-09-04 06:48:00,SystemResetWarning,0827.1,5.00,000.00,028.4,026.6,000.0,036.8,029.8,31.3,0000.0,0003.20,0002.22,0001.74
2023-09-04 06:49:00,SystemResetWarning,0827.1,4.99,000.00,028.4,026.7,000.0,036.8,029.8,31.4,0000.0,0003.11,0002.19,0001.74
2023-09-04 06:50:00,SystemResetWarning,0827.1,4.99,000.00,028.4,026.9,000.0,036.9,029.9,31.5,0000.0,0003.07,0002.19,0001.74
2023-09-04 06:51:00,SystemResetWarning,0827.1,5.00,000.00,028.4,027.0,000.0,036.9,029.9,31.5,0000.0,0002.91,0002.13,0001.72
2023-09-04 06:52:00,SystemResetWarning,0827.1,5.00,000.00,028.5,027.1,000.0,036.9,030.0,31.8,0000.0,0002.91,0002.12,0001.71
2023-09-04 06:53:00,SystemResetWarning,0827.1,5.00,000.00,028.5,027.2,000.0,036.9,030.0,31.3,0000.0,0002.87,0002.11,0001.69
2023-09-04 06:54:00,SystemResetWarning,0827.1,5.01,000.00,028.5,027.2,000.0,036.9,030.0,30.7,0000.0,0002.78,0002.08,0001.69
2023-09-04 06:55:00,SystemResetWarning,0827.0,5.01,000.00,028.6,027.3,000.0,036.9,030.1,30.6,0000.0,0002.70,0002.05,0001.69
2023-09-04 06:56:00,SystemResetWarning,0827.0,5.01,000.00,028.6,027.3,000.0,036.9,030.1,30.7,0000.0,0002.69,0002.05,0001.70
2023-09-04 06:57:00,SystemResetWarning,0826.9,4.99,000.00,028.6,027.3,000.0,036.9,030.1,30.5,0000.0,0002.60,0001.99,0001.70
2023-09-04 06:58:00,SystemResetWarning,0827.0,4.98,000.00,028.6,025.9,000.0,036.9,029.7,30.5,0000.0,0002.47,0001.93,0001.70
2023-09-04 06:59:00,SystemResetWarning,0826.9,5.02,000.00,028.4,024.7,000.0,036.8,029.4,30.7,0000.0,0002.46,0001.93,0001.69
